Regional Weather Roundup
Issued by NWS Sterling, VA

Home | Current Version | Previous Version | Graphics & Text | Print | Product List | Glossary On
Versions: 1 2 3 4 5 6 7 8 9 10 11 12 13 14 15 16 17 18 19 20 21 22 23 24 25 26 27 28 29 30 31 32 33 34 35 36 37 38 39 40 41 42 43 44 45 46 47 48 49 50
000
ASUS41 KLWX 302210
RWRLWX

REGIONAL WEATHER ROUNDUP
NATIONAL WEATHER SERVICE BALTIMORE MD/WASHINGTON DC
600 PM EDT TUE JUN 30 2015

Note: "FAIR" indicates few or no clouds below 12,000 feet
with no significant weather and/or obstructions to visibility.
 TC=TEMPERATURE CELSIUS

 * =Non NWS site. Station does not report precipitation (e.g. rain,
    snow, etc.), thunder, or fog.

DCZ001-MDZ009-015-VAZ040>042-051-053>054-302300-
WASHINGTON METRO

CITY           SKY/WX    TMP DP  RH WIND       PRES   REMARKS
WASHINGTON NAT PTSUNNY   88  67  49 SW18      29.79R HX  91
DULLES         PTSUNNY   83  66  56 SW13      29.80R
ANDREWS AFB    PTSUNNY   86  72  62 SW14G20   29.79S HX  92
FT BELVOIR     MOSUNNY   85  69  57 VRB1      29.79R
QUANTICO       PTSUNNY   86  65  49 SW8       29.80S
COLLEGE PARK*  MOSUNNY   86  64  48 S5        29.79R
LEESBURG*      MOSUNNY   84  70  61 SW12      29.81R
MANASSAS*      SUNNY     84  66  54 SW10        N/A
GAITHERSBURG*  PTSUNNY   84  64  51 CALM      29.84R

$$

MDZ006>007-011-014-302300-
BALTIMORE METRO

CITY           SKY/WX    TMP DP  RH WIND       PRES   REMARKS
BWI AIRPORT    PTSUNNY   83  72  69 SE12G17   29.78S
MD SCIENCE CTR   N/A     84  70  62 MISG      29.78S
MARTIN STATE   MOSUNNY   84  75  74 SE20      29.80F HX  92
ANNAPOLIS      MOSUNNY   78  70  76 SE15      29.79S
FORT MEADE*    MOSUNNY   82  70  65 SW7       29.81S

$$

MDZ012-015-019>023-302300-
MARYLAND EASTERN SHORE

CITY           SKY/WX    TMP DP  RH WIND       PRES   REMARKS
OCEAN CITY     SUNNY     76  72  87 S8        29.86S
SALISBURY      SUNNY     81  68  64 SE9       29.83F
BAY BRIDGE AP*   N/A     77  70  78 SE7       29.80F
CAMBRIDGE*     PTSUNNY   77  66  69 S18G25    29.83R
EASTON*        PTSUNNY   86  72  62 S15G24    29.85F HX  92

$$

MDZ017>025-302300-
SOUTHERN MARYLAND

CITY           SKY/WX    TMP DP  RH WIND       PRES   REMARKS
PATUXENT RIVER PTSUNNY   81  69  67 SW7       29.81F
ST INIGOES     MOSUNNY   83  70  64 S9        29.80S
LEONARDTOWN*   MOSUNNY   79  68  69 E3        29.83S

$$

MDZ003>005-302300-
NORTH CENTRAL MARYLAND

CITY           SKY/WX    TMP DP  RH WIND       PRES   REMARKS
FREDERICK*     LGT RAIN N/A N/A N/A SW6       29.82R
HAGERSTOWN APT LGT RAIN  77  68  73 S9        29.79S
WESTMINSTER*   PTSUNNY   84  66  54 S9        29.81S

$$

MDZ501>502-302300-
WESTERN MARYLAND

CITY           SKY/WX    TMP DP  RH WIND       PRES   REMARKS
OAKLAND*       MOSUNNY   70  70 100 SW10G18   29.91S
CUMBERLAND*    MOSUNNY   82  59  44 SW12      29.83R

$$

VAZ025>031-302300-
SHENANDOAH VALLEY

CITY           SKY/WX    TMP DP  RH WIND       PRES   REMARKS
WINCHESTER*    CLOUDY    81  72  74 SE5       29.80S
FRONT ROYAL*   FAIR      81  63  54 SW3       29.80S
LURAY*         FAIR      81  72  74 CALM      29.82S
NEW MARKET*    FAIR      81  67  63 S5        29.80S
STAUNTON*      MOSUNNY   83  65  56 SW12      29.86F
WAYNESBORO*    FAIR      79  65  62 S8        29.87S

$$

WVZ021-048>050-054>055-302300-
EASTERN WEST VIRGINIA PANHANDLE

CITY           SKY/WX    TMP DP  RH WIND       PRES   REMARKS
MARTINSBURG    MOSUNNY   78  66  66 S7        29.80F
PETERSBURG*    MOSUNNY   83  59  44 W6        29.82S

$$

VAZ036>039-050-302300-
CENTRAL FOOTHILLS

CITY           SKY/WX    TMP DP  RH WIND       PRES   REMARKS
CHARLOTTESVILL MOSUNNY   83  67  58 SW10      29.82S
CULPEPER*      SUNNY     83  66  57 S8        29.81S
ORANGE*        MOSUNNY   84  68  58 S7        29.83S
GORDONSVILLE*  FAIR      84  66  54 SW12      29.81S
WARRENTON*     FAIR      85  70  61 S7        29.80S

$$

VAZ055>057-302300-
NORTH AND CENTRAL PIEDMONT

CITY           SKY/WX    TMP DP  RH WIND       PRES   REMARKS
FREDERICKSBRG* SUNNY     88  66  48 SW10G16   29.80R HX  90
STAFFORD*      SUNNY     83  65  53 SW8       29.84S

$$

NCZ024-NYZ072-PAZ021-071-VAZ022-071-302300-
OTHER REGIONAL OBSERVATIONS

CITY           SKY/WX    TMP DP  RH WIND       PRES   REMARKS
NEW YORK CITY  CLOUDY    76  64  66 VRB5G22   29.91F
PHILADELPHIA   TSTM      78  67  68 SE13G18   29.84F
PITTSBURGH     TSTM      67  59  75 W21G33    29.83R
ROANOKE        PTSUNNY   81  64  56 S16G23    29.88F
RICHMOND       PTSUNNY   88  69  53 SW16      29.83S HX  92
RALEIGH        PTSUNNY   89  68  49 S10       29.85F HX  93

$$

ANZ530>537-302300-
MARINE OBSERVATIONS

STATION/POSITION TIME  TEMP    WIND        PRES
                       AIR SEA DIR/SP/G
                 (UTC) (F)     (DEG/KT/KT) (MB)
THOMAS PT LIGHT  NOT AVBL
BALT KEY BRIDGE  2100   80     140/ 15/ 17 1008.3F
COVE POINT       2100   72     120/ 16/ 21 1010.2F
LEWISETTA        2100   79 81  220/ 12/ 15 1009.8R
SOLOMONS ISLAND  2100      81                N/A
PINEY POINT      2100          210/  9/ 10   N/A

$$



USA.gov is the U.S. government's official web portal to all federal, state and local government web resources and services.